Location: Dob?e?
(49.9411°N, 15.1496°E)
Time: 12:14:03
(UTC+00:00)

DELFI C3 - Pass Details

Date: 31 October 2021
Orbit: 529 x 543 km, 97.4° (Epoch: 29 November)

Event Time Altitude Azimuth Distance (km) Brightness Sun altitude
Exits shadow 17:33:54 39° 41° (NE) 815 ? -19.1°
Drops below altitude 10° 17:36:54 10° 359° (N) 1,792 ? -19.6°
Sets 17:39:05 0° 353° (N) 2,689 ? -19.9°
